Meteo pe oră la Abdurashid

Astăzi, 27 Iulie, Marţi

Timp Temperatura Precipitaţii Vânt Presiune Umiditate
00:00 +25°C° 0.1 mm 3 m/s 759 mmHg 75%
01:00 +25°C° 0 mm 3 m/s 759 mmHg 74%
02:00 +25°C° 0 mm 3 m/s 759 mmHg 74%
03:00 +25°C° 0 mm 3 m/s 758 mmHg 73%
04:00 +25°C° 0.1 mm 2 m/s 758 mmHg 74%
05:00 +25°C° 0.1 mm 2 m/s 758 mmHg 75%
06:00 +25°C° 0.1 mm 2 m/s 759 mmHg 75%
07:00 +27°C° 0.2 mm 3 m/s 759 mmHg 67%
08:00 +28°C° 0.2 mm 5 m/s 759 mmHg 59%
09:00 +30°C° 0.2 mm 6 m/s 759 mmHg 51%
10:00 +32°C° 0.1 mm 6 m/s 758 mmHg 44%
11:00 +33°C° 0.1 mm 7 m/s 758 mmHg 38%
12:00 +35°C° 0.1 mm 7 m/s 758 mmHg 31%
13:00 +35°C° 0 mm 7 m/s 758 mmHg 31%
14:00 +34°C° 0 mm 7 m/s 757 mmHg 30%
15:00 +34°C° 0 mm 7 m/s 757 mmHg 30%
16:00 +33°C° 0 mm 6 m/s 758 mmHg 34%
17:00 +30°C° 0 mm 5 m/s 758 mmHg 39%
18:00 +29°C° 0 mm 5 m/s 758 mmHg 43%
19:00 +28°C° 0 mm 4 m/s 759 mmHg 47%
20:00 +27°C° 0 mm 3 m/s 759 mmHg 51%
21:00 +26°C° 0 mm 3 m/s 759 mmHg 55%
22:00 +26°C° 0.1 mm 2 m/s 759 mmHg 59%
23:00 +25°C° 0.1 mm 2 m/s 759 mmHg 62%

Mâine, 28 Iulie, Miercuri

Timp Temperatura Precipitaţii Vânt Presiune Umiditate
00:00 +25°C° 0.1 mm 1 m/s 760 mmHg 66%
01:00 +24°C° 0.1 mm 1 m/s 760 mmHg 66%
02:00 +24°C° 0.1 mm 1 m/s 760 mmHg 66%
03:00 +24°C° 0.1 mm 1 m/s 760 mmHg 66%
04:00 +24°C° 0 mm 1 m/s 760 mmHg 65%
05:00 +24°C° 0 mm 1 m/s 760 mmHg 63%
06:00 +24°C° 0 mm 1 m/s 760 mmHg 62%
07:00 +24°C° 0 mm 2 m/s 760 mmHg 60%
08:00 +24°C° 0 mm 2 m/s 760 mmHg 58%
09:00 +25°C° 0 mm 3 m/s 760 mmHg 56%
10:00 +25°C° 0 mm 3 m/s 761 mmHg 54%
11:00 +25°C° 0 mm 3 m/s 761 mmHg 52%
12:00 +25°C° 0 mm 3 m/s 761 mmHg 50%
13:00 +25°C° 0 mm 3 m/s 761 mmHg 51%
14:00 +25°C° 0 mm 3 m/s 761 mmHg 51%
15:00 +25°C° 0 mm 3 m/s 761 mmHg 52%
16:00 +25°C° 0 mm 3 m/s 761 mmHg 51%
17:00 +25°C° 0 mm 3 m/s 761 mmHg 50%
18:00 +25°C° 0 mm 2 m/s 761 mmHg 50%
19:00 +24°C° 0 mm 3 m/s 761 mmHg 53%
20:00 +22°C° 0 mm 3 m/s 761 mmHg 57%
21:00 +22°C° 0 mm 3 m/s 761 mmHg 60%
22:00 +21°C° 0 mm 3 m/s 760 mmHg 62%
23:00 +21°C° 0 mm 2 m/s 760 mmHg 64%

Poimâine, 29 Iulie, Joi

Timp Temperatura Precipitaţii Vânt Presiune Umiditate
00:00 +20°C° 0 mm 2 m/s 760 mmHg 65%
01:00 +20°C° 0 mm 1 m/s 760 mmHg 67%
02:00 +20°C° 0 mm 1 m/s 760 mmHg 68%
03:00 +19°C° 0 mm 1 m/s 759 mmHg 69%
04:00 +20°C° 0 mm 1 m/s 759 mmHg 67%
05:00 +21°C° 0 mm 1 m/s 760 mmHg 65%
06:00 +19°C° 0 mm 0 m/s 760 mmHg 63%
07:00 +24°C° 0 mm 1 m/s 760 mmHg 55%
08:00 +26°C° 0 mm 2 m/s 760 mmHg 47%
09:00 +28°C° 0 mm 3 m/s 759 mmHg 39%
10:00 +30°C° 0 mm 4 m/s 759 mmHg 35%
11:00 +33°C° 0 mm 5 m/s 758 mmHg 30%
12:00 +34°C° 0 mm 6 m/s 758 mmHg 26%
13:00 +34°C° 0 mm 7 m/s 758 mmHg 27%
14:00 +34°C° 0 mm 7 m/s 757 mmHg 28%
15:00 +34°C° 0 mm 7 m/s 757 mmHg 29%
16:00 +33°C° 0 mm 7 m/s 757 mmHg 32%
17:00 +32°C° 0 mm 7 m/s 757 mmHg 36%
18:00 +30°C° 0 mm 6 m/s 757 mmHg 40%
19:00 +28°C° 0 mm 5 m/s 757 mmHg 48%
20:00 +26°C° 0 mm 4 m/s 757 mmHg 56%
21:00 +24°C° 0 mm 3 m/s 757 mmHg 64%
22:00 +24°C° 0 mm 3 m/s 757 mmHg 67%
23:00 +24°C° 0 mm 3 m/s 757 mmHg 70%

30 Iulie, Vineri

Timp Temperatura Precipitaţii Vânt Presiune Umiditate
00:00 +22°C° 0 mm 3 m/s 757 mmHg 73%
01:00 +23°C° 0 mm 2 m/s 757 mmHg 74%
02:00 +23°C° 0 mm 2 m/s 756 mmHg 74%
03:00 +23°C° 0 mm 2 m/s 756 mmHg 75%
04:00 +23°C° 0 mm 2 m/s 756 mmHg 71%
05:00 +24°C° 0 mm 1 m/s 757 mmHg 68%
06:00 +24°C° 0 mm 1 m/s 757 mmHg 65%
07:00 +27°C° 0 mm 1 m/s 757 mmHg 54%
08:00 +29°C° 0 mm 2 m/s 757 mmHg 44%
09:00 +32°C° 0 mm 2 m/s 757 mmHg 33%
10:00 +34°C° 0 mm 3 m/s 756 mmHg 29%
11:00 +36°C° 0 mm 4 m/s 756 mmHg 24%
12:00 +37°C° 0 mm 5 m/s 755 mmHg 20%
13:00 +37°C° 0 mm 5 m/s 755 mmHg 20%
14:00 +38°C° 0 mm 6 m/s 755 mmHg 21%
15:00 +38°C° 0 mm 7 m/s 754 mmHg 21%
16:00 +36°C° 0 mm 6 m/s 754 mmHg 23%
17:00 +35°C° 0 mm 6 m/s 754 mmHg 25%
18:00 +34°C° 0 mm 6 m/s 755 mmHg 27%
19:00 +30°C° 0 mm 5 m/s 755 mmHg 36%
20:00 +28°C° 0 mm 4 m/s 755 mmHg 45%
21:00 +25°C° 0 mm 3 m/s 755 mmHg 54%
22:00 +25°C° 0 mm 2 m/s 755 mmHg 56%
23:00 +25°C° 0 mm 2 m/s 755 mmHg 58%

31 Iulie, Sâmbătă

Timp Temperatura Precipitaţii Vânt Presiune Umiditate
00:00 +24°C° 0 mm 2 m/s 755 mmHg 59%
01:00 +24°C° 0 mm 2 m/s 755 mmHg 61%
02:00 +24°C° 0 mm 1 m/s 755 mmHg 62%
03:00 +23°C° 0 mm 1 m/s 755 mmHg 63%
04:00 +24°C° 0 mm 1 m/s 755 mmHg 60%
05:00 +25°C° 0 mm 1 m/s 755 mmHg 58%
06:00 +26°C° 0 mm 1 m/s 755 mmHg 55%
07:00 +28°C° 0 mm 1 m/s 755 mmHg 48%
08:00 +30°C° 0 mm 1 m/s 755 mmHg 41%
09:00 +32°C° 0 mm 1 m/s 755 mmHg 35%
10:00 +35°C° 0 mm 2 m/s 754 mmHg 31%
11:00 +37°C° 0 mm 2 m/s 754 mmHg 28%
12:00 +38°C° 0 mm 2 m/s 754 mmHg 24%
13:00 +39°C° 0 mm 3 m/s 753 mmHg 24%
14:00 +40°C° 0 mm 4 m/s 753 mmHg 23%
15:00 +40°C° 0 mm 5 m/s 753 mmHg 22%
16:00 +39°C° 0 mm 5 m/s 753 mmHg 25%
17:00 +36°C° 0 mm 5 m/s 753 mmHg 27%
18:00 +35°C° 0 mm 6 m/s 753 mmHg 29%
19:00 +33°C° 0 mm 5 m/s 753 mmHg 36%
20:00 +30°C° 0 mm 4 m/s 754 mmHg 42%
21:00 +27°C° 0 mm 3 m/s 754 mmHg 49%
22:00 +27°C° 0 mm 2 m/s 754 mmHg 51%
23:00 +27°C° 0 mm 2 m/s 754 mmHg 53%

1 August, Duminică

Timp Temperatura Precipitaţii Vânt Presiune Umiditate
00:00 +26°C° 0 mm 2 m/s 754 mmHg 55%
01:00 +26°C° 0 mm 2 m/s 754 mmHg 56%
02:00 +26°C° 0 mm 1 m/s 754 mmHg 57%
03:00 +25°C° 0 mm 1 m/s 754 mmHg 59%
04:00 +26°C° 0 mm 1 m/s 754 mmHg 57%
05:00 +27°C° 0 mm 1 m/s 754 mmHg 55%
06:00 +27°C° 0 mm 1 m/s 755 mmHg 53%
07:00 +30°C° 0 mm 1 m/s 755 mmHg 47%
08:00 +32°C° 0 mm 2 m/s 755 mmHg 42%
09:00 +35°C° 0 mm 2 m/s 755 mmHg 36%
10:00 +37°C° 0 mm 2 m/s 754 mmHg 31%
11:00 +39°C° 0 mm 2 m/s 754 mmHg 26%
12:00 +41°C° 0 mm 1 m/s 754 mmHg 21%
13:00 +42°C° 0 mm 3 m/s 754 mmHg 19%
14:00 +42°C° 0 mm 4 m/s 753 mmHg 18%
15:00 +42°C° 0 mm 6 m/s 753 mmHg 16%
16:00 +41°C° 0 mm 5 m/s 753 mmHg 21%
17:00 +39°C° 0 mm 5 m/s 753 mmHg 25%
18:00 +36°C° 0 mm 4 m/s 754 mmHg 30%
19:00 +34°C° 0 mm 4 m/s 754 mmHg 34%
20:00 +31°C° 0 mm 3 m/s 754 mmHg 39%
21:00 +28°C° 0 mm 2 m/s 754 mmHg 44%
22:00 +28°C° 0 mm 2 m/s 754 mmHg 47%
23:00 +27°C° 0 mm 2 m/s 754 mmHg 50%
Arată mai mult

Formular de consimțământ

Meteoprog și furnizorii noștri de servicii pot stoca și accesa date personale, precum cookies, identificatori de dispozitiv sau alte tehnologii similare pe dispozitivul dumneavoastră și procesa astfel de date pentru a personaliza conținutul și reclamele, dar și pentru a oferi caracteristici de social media și pentru a analiza traficul.

  • Stocarea și/sau accesarea informațiilor pe dispozitivul dumneavoastră

    Cookies, identificatori de dispozitiv sau alte informații pot fi stocate sau accesate pe dispozitiv în scopurile indicate mai sus.

  • Reclame și conținut personalizat, evaluarea reclamelor și a conținutului, informații despre audiențe și dezvoltarea produselor

    Reclamele și conținutul pot fi personalizate pe baza unui profil. Pot fi adăugate date suplimentare pentru a personaliza mai bine reclamele și conținutul. Performanța reclamelor și conținutului poate fi măsurată. Pot fi obținute informații despre utilizatorii care au văzut reclamele și conținutul. Aceste date pot fi utilizate pentru a dezvolta sau îmbunătăți experiența utilizatorilor, sistemele și software-ul.

Dând clic pe ‘Sunt de acord’, permiteți utilizarea cookie-urilor menționate, a identificatorilor de dispozitiv, balizelor web sau altor tehnologii similare. Setările pot fi modificate din browser-ul dispozitivului dumneavoastră.

În anumite scopuri, interesele legitime pot prima asupra consimțământului. Puteți citi mai multe informații în acest sens în Politica privind Confidențialitatea Datelor și Cookie.